Harlan, IA

9:55 PM CST on December 10, 2019 (GMT -0600)
Harlan Municipal

Weather History for KHNR - October, 2019

Change the Weather History Date:

Monday, October 14, 2019

  Actual Average Record
Temperature  
Mean Temperature 47 °F -  
Max Temperature 68 °F 65 °F 87 °F (1953)
Min Temperature 26 °F 42 °F 24 °F (1969)
Degree Days  
Heating Degree Days 18    
Moisture  
Dew Point 36 °F    
Average Humidity 70    
Maximum Humidity 100    
Minimum Humidity 32    
Precipitation  
Precipitation 0.00 in - - ()
Sea Level Pressure  
Sea Level Pressure 29.95 in    
Wind  
Wind Speed 4 mph ()    
Max Wind Speed 14 mph    
Max Gust Speed 21 mph    
Visibility 10.0 miles    
Events      
Averages and records for this station are not official NWS values.
T = Trace of Precipitation, MM = Missing Value Source: Averaged Metar Reports

Daily Weather History Graph

Daily Weather History Graph

Search for Another Location

Airport or City:

Astronomy

Oct. 14, 2019 Rise Set
Actual Time 7:32 AM CDT 6:42 PM CDT
Civil Twilight 7:04 AM CDT 7:09 PM CDT
Nautical Twilight 6:31 AM CDT 7:42 PM CDT
Astronomical Twilight 5:59 AM CDT 8:14 PM CDT
Moon 7:32 PM CDT (10/14) 8:04 AM CDT (10/14)
Length of Visible Light 12h 05m
Length of Day
11h 09m
Full, 99% of the Moon is Illuminated
Oct 14
Full
Oct 21
Last Quarter
Oct 27
New
Nov 4
First Quarter
Nov 12
Full

Hourly Weather History & Observations

Time (CDT) Temp. Windchill Dew Point Humidity Pressure Visibility Wind Dir Wind Speed Gust Speed Precip Events Conditions
12:15 AM 30.2 °F - 30.2 °F 100% 30.02 in 10.0 mi Calm Calm - N/A   Clear
12:35 AM 30.2 °F - 30.2 °F 100% 30.02 in 10.0 mi Calm Calm - N/A   Clear
12:55 AM 30.2 °F - 30.2 °F 100% 30.02 in 10.0 mi Calm Calm - N/A   Clear
1:15 AM - - - N/A% 30.02 in 10.0 mi Calm Calm - N/A   Clear
1:35 AM 30.2 °F - 30.2 °F 100% 30.02 in 10.0 mi Calm Calm - N/A   Clear
1:55 AM - - - N/A% 30.02 in 10.0 mi Calm Calm - N/A   Clear
2:15 AM 28.4 °F - 28.4 °F 100% 30.02 in 10.0 mi Calm Calm - N/A   Clear
2:35 AM 28.4 °F - 28.4 °F 100% 30.04 in 10.0 mi Calm Calm - N/A   Clear
2:55 AM 28.4 °F - 28.4 °F 100% 30.03 in 10.0 mi Calm Calm - N/A   Clear
3:15 AM 28.4 °F - 28.4 °F 100% 30.03 in 10.0 mi Calm Calm - N/A   Clear
3:35 AM 28.4 °F - 28.4 °F 100% 30.04 in 10.0 mi Calm Calm - N/A   Clear
3:55 AM 26.6 °F - 26.6 °F 100% 30.04 in 10.0 mi Calm Calm - N/A   Clear
4:15 AM 26.6 °F - 26.6 °F 100% 30.04 in 10.0 mi Calm Calm - N/A   Clear
4:35 AM 26.6 °F - 26.6 °F 100% 30.04 in 10.0 mi Calm Calm - N/A   Clear
4:55 AM 26.6 °F - 26.6 °F 100% 30.04 in 10.0 mi Calm Calm - N/A   Clear
5:15 AM 26.6 °F - 26.6 °F 100% 30.04 in 10.0 mi Calm Calm - N/A   Clear
5:35 AM 26.6 °F 22.6 °F 26.6 °F 100% 30.03 in 10.0 mi NNE 3.5 mph - N/A   Clear
5:55 AM 26.6 °F - 26.6 °F 100% 30.03 in 10.0 mi Calm Calm - N/A   Clear
6:15 AM 26.6 °F - 26.6 °F 100% 30.03 in 10.0 mi Calm Calm - N/A   Clear
6:35 AM 26.6 °F - 26.6 °F 100% 30.03 in 9.0 mi Calm Calm - N/A   Clear
6:55 AM 26.6 °F - 26.6 °F 100% 30.05 in 10.0 mi Calm Calm - N/A   Clear
7:15 AM 26.6 °F - 26.6 °F 100% 30.05 in 10.0 mi Calm Calm - N/A   Clear
7:35 AM 26.6 °F - 26.6 °F 100% 30.04 in 10.0 mi Calm Calm - N/A   Clear
7:55 AM 26.6 °F - 26.6 °F 100% 30.04 in 10.0 mi Calm Calm - N/A   Clear
8:15 AM 28.4 °F - 28.4 °F 100% 30.04 in 10.0 mi Calm Calm - N/A   Clear
8:35 AM 30.2 °F - 30.2 °F 100% 30.04 in 10.0 mi Calm Calm - N/A   Clear
8:55 AM 33.8 °F - 33.8 °F 100% 30.05 in 10.0 mi Calm Calm - N/A   Clear
9:15 AM 35.6 °F - 35.6 °F 100% 30.05 in 10.0 mi Calm Calm - N/A   Clear
9:35 AM 37.4 °F - 37.4 °F 100% 30.04 in 10.0 mi Calm Calm - N/A   Clear
9:55 AM 41.0 °F 37.1 °F 37.4 °F 87% 30.03 in 10.0 mi Variable 5.8 mph - N/A   Clear
10:15 AM 44.6 °F 39.7 °F 35.6 °F 71% 30.03 in 10.0 mi SE 9.2 mph - N/A   Clear
10:35 AM 46.4 °F 41.1 °F 35.6 °F 66% 30.03 in 10.0 mi SSE 11.5 mph - N/A   Clear
10:55 AM 50.0 °F - 37.4 °F 62% 30.02 in 10.0 mi SSE 10.4 mph - N/A   Clear
11:15 AM 50.0 °F - 37.4 °F 62% 30.02 in 10.0 mi SE 10.4 mph - N/A   Clear
11:35 AM 53.6 °F - 37.4 °F 54% 30.01 in 10.0 mi SE 10.4 mph 16.1 mph N/A   Clear
11:55 AM 53.6 °F - 37.4 °F 54% 30.00 in 10.0 mi South 9.2 mph 16.1 mph N/A   Clear
12:15 PM 55.4 °F - 35.6 °F 47% 30.00 in 10.0 mi SSE 10.4 mph - N/A   Clear
12:35 PM 57.2 °F - 33.8 °F 41% 29.98 in 10.0 mi SE 9.2 mph 16.1 mph N/A   Clear
12:55 PM 59.0 °F - 32.0 °F 36% 29.97 in 10.0 mi South 10.4 mph - N/A   Clear
1:15 PM 60.8 °F - 33.8 °F 36% 29.96 in 10.0 mi SSE 12.7 mph - N/A   Clear
1:35 PM 60.8 °F - 33.8 °F 36% 29.95 in 10.0 mi SE 9.2 mph 17.3 mph N/A   Clear
1:55 PM 62.6 °F - 33.8 °F 34% 29.93 in 10.0 mi SSE 13.8 mph - N/A   Clear
2:15 PM 64.4 °F - 35.6 °F 34% 29.91 in 10.0 mi SE 11.5 mph - N/A   Clear
2:35 PM 64.4 °F - 35.6 °F 34% 29.90 in 10.0 mi SSE 10.4 mph 17.3 mph N/A   Clear
2:55 PM 66.2 °F - 35.6 °F 32% 29.88 in 10.0 mi SSE 11.5 mph 17.3 mph N/A   Clear
3:15 PM 66.2 °F - 37.4 °F 35% 29.88 in 10.0 mi SSE 11.5 mph - N/A   Clear
3:35 PM 66.2 °F - 37.4 °F 35% 29.87 in 10.0 mi SSE 12.7 mph - N/A   Clear
3:55 PM 68.0 °F - 37.4 °F 33% 29.86 in 10.0 mi South 10.4 mph 18.4 mph N/A   Clear
4:15 PM 68.0 °F - 37.4 °F 33% 29.86 in 10.0 mi South 8.1 mph 16.1 mph N/A   Clear
4:35 PM 68.0 °F - 37.4 °F 33% 29.85 in 10.0 mi South 13.8 mph 19.6 mph N/A   Clear
4:55 PM 68.0 °F - 39.2 °F 35% 29.85 in 10.0 mi SE 13.8 mph - N/A   Clear
5:15 PM 66.2 °F - 39.2 °F 37% 29.84 in 10.0 mi SSE 12.7 mph 19.6 mph N/A   Clear
5:35 PM 66.2 °F - 39.2 °F 37% 29.84 in 10.0 mi SSE 11.5 mph 20.7 mph N/A   Clear
5:55 PM 66.2 °F - 41.0 °F 40% 29.84 in 10.0 mi SSE 9.2 mph - N/A   Clear
6:15 PM 64.4 °F - 41.0 °F 42% 29.84 in 10.0 mi SSE 8.1 mph - N/A   Clear
6:35 PM 62.6 °F - 41.0 °F 45% 29.84 in 10.0 mi SSE 8.1 mph - N/A   Clear
6:55 PM 60.8 °F - 42.8 °F 52% 29.82 in 10.0 mi SSE 9.2 mph - N/A   Clear
7:15 PM 59.0 °F - 42.8 °F 55% 29.83 in 10.0 mi SE 9.2 mph - N/A   Clear
7:35 PM 59.0 °F - 42.8 °F 55% 29.82 in 10.0 mi SSE 10.4 mph - N/A   Clear
7:55 PM 59.0 °F - 44.6 °F 59% 29.82 in 10.0 mi SSE 9.2 mph - N/A   Clear
8:15 PM 59.0 °F - 44.6 °F 59% 29.81 in 10.0 mi SSE 10.4 mph 17.3 mph N/A   Clear
8:35 PM 59.0 °F - 44.6 °F 59% 29.82 in 10.0 mi South 10.4 mph 19.6 mph N/A   Clear
8:55 PM 57.2 °F - 44.6 °F 63% 29.82 in 10.0 mi SSW 6.9 mph - N/A   Clear
9:15 PM 57.2 °F - 44.6 °F 63% 29.84 in 10.0 mi South 9.2 mph - N/A   Clear
9:35 PM 57.2 °F - 44.6 °F 63% 29.83 in 10.0 mi SSE 10.4 mph 16.1 mph N/A   Clear
9:55 PM 55.4 °F - 46.4 °F 72% 29.83 in 10.0 mi South 8.1 mph - N/A   Clear
10:15 PM 55.4 °F - 46.4 °F 72% 29.83 in 10.0 mi South 9.2 mph - N/A   Clear
10:35 PM 55.4 °F - 46.4 °F 72% 29.82 in 10.0 mi SSE 10.4 mph 17.3 mph N/A   Clear
10:55 PM 55.4 °F - 46.4 °F 72% 29.82 in 10.0 mi SSE 8.1 mph - N/A   Clear
11:15 PM 55.4 °F - 46.4 °F 72% 29.81 in 10.0 mi South 10.4 mph - N/A   Clear
11:35 PM 53.6 °F - 46.4 °F 77% 29.81 in 10.0 mi South 8.1 mph - N/A   Clear
11:55 PM 53.6 °F - 46.4 °F 77% 29.80 in 10.0 mi South 8.1 mph - N/A   Clear